Regional Weather Roundup
Issued by NWS

Home | Current Version | Previous Version | Graphics & Text | Print | Product List | Glossary On
Versions: 1 2 3 4 5 6 7 8 9 10 11 12 13 14 15 16 17 18 19 20 21 22 23 24 25 26 27 28 29 30 31 32 33 34 35 36 37 38 39 40 41 42 43 44 45 46 47 48 49 50
470
ASUS43 KIND 261509
RWRIN

WEATHER ROUNDUP FOR INDIANA
NATIONAL WEATHER SERVICE INDIANAPOLIS IN
1100 AM EDT SAT MAY 26 2018

NOTE: "FAIR" INDICATES FEW OR NO CLOUDS BELOW 12,000 FEET WITH NO
SIGNIFICANT WEATHER AND/OR OBSTRUCTIONS TO VISIBILITY.

* - STATION DOES NOT REPORT WEATHER SUCH AS PRECIPITATION OR FOG.

+ - STATION NOT QUALITY CONTROLLED BY THE NATIONAL WEATHER SERVICE.
    USE DATA WITH CAUTION...ESPECIALLY DEWPOINT AND RELATIVE
    HUMIDITY OBSERVATIONS.

INZ001>003-010>013-019-020-261600-
NORTHWEST INDIANA

CITY           SKY/WX    TMP DP  RH WIND       PRES   REMARKS
GARY /AIRPORT/ MOSUNNY   79  66  65 SW5       29.80S
KNOX *+        FAIR      77  66  69 SW8       29.81S
LA PORTE +     FAIR      76  67  72 W7        29.82S
MICHIGAN CITY+ FAIR      79  64  61 S3        29.81S
MONTICELLO +   CLOUDY    72  69  93 SW7       29.84R
RENSSELAER +   FAIR      75  63  64 S7        29.82S
VALPARAISO     FAIR      79  67  66 SW7       29.82S

$$

LMZ046-743>745-261600-
SOUTHERN LAKE MICHIGAN

STATION/POSITION TIME  TEMP    WIND        PRES    WAVE
                       AIR SEA DIR/SP/G            HT
                 (UTC) (F)     (DEG/KT/KT) (MB)    (FT)
BURNS HARBOR     1440   73        CALM     1009.8R
MICHIGAN CITY    1440   72     220/  6/  7   N/A
5NW MICH CITY    1500   67 61  250/  2/  4   N/A     0

$$

INZ004-005-014>016-021>024-261600-
NORTH CENTRAL INDIANA

CITY           SKY/WX    TMP DP  RH WIND       PRES   REMARKS
ELKHART        MOSUNNY   77  68  73 SW6       29.81S
GOSHEN         PTSUNNY   76  69  79 SW12      29.81F
LOGANSPORT +   CLOUDY    72  66  83 SW8       29.85S
PERU/GRISSOM   PTSUNNY   73  73 100 W8        29.84S
ROCHESTER +    CLOUDY    73  68  83 SW6       29.84S
SOUTH BEND     FAIR      77  67  71 W7        29.82R
WARSAW +       CLOUDY    72  68  88 SW6       29.83S

$$

INZ006>009-017-018-025>027-261600-
NORTHEAST INDIANA

CITY           SKY/WX    TMP DP  RH WIND       PRES   REMARKS
ANGOLA *+      FAIR      75  68  78 SW8G14    29.82S
AUBURN +       FAIR      73  66  78 W3        29.84S
FORT WAYNE     CLOUDY    77  66  68 W9        29.84S
HUNTINGTON +   CLOUDY    73  66  78 W5        29.84S
KENDALLVILLE + CLOUDY    73  65  76 SW8       29.84R

$$

INZ028-029-035-036-043>045-051>053-261600-
WEST CENTRAL INDIANA

CITY           SKY/WX    TMP DP  RH WIND       PRES   REMARKS
CRAWFORDSVL +  CLOUDY    70  69  95 SW6       29.86R
GREENCASTLE +  CLOUDY    72  68  88 CALM      29.86F
LAFAYETTE      CLOUDY    70  69  97 W5        29.83S
TERRE HAUTE    PTSUNNY   75  70  84 VRB5      29.85F

$$

INZ030>032-037>040-046>048-054>057-064-065-261600-
CENTRAL INDIANA

CITY           SKY/WX    TMP DP  RH WIND       PRES   REMARKS
COLUMBUS       MOSUNNY   77  63  61 SW12      29.87S
FISHERS *+     CLOUDY   N/A N/A N/A SW7       29.86S
FRANKFORT +    LGT RAIN N/A N/A N/A W6        29.87S
GREENWOOD *+   CLOUDY    71  68  92 W5        29.86F
INDIANAPOLIS   PTSUNNY   76  68  76 SW9       29.85F
-EAGLE CREEK   CLOUDY    76  67  73 SW6       29.84F
KOKOMO +       PTSUNNY   75  66  73 SW7       29.85F
MARION +       CLOUDY    76  65  70 CALM      29.85S
MT COMFORT *+  PTSUNNY   72  72 100 SW9       29.87R
SHELBYVILLE    FAIR      80  66  62 SW8       29.85F
ZIONSVILLE +   PTSUNNY   75  67  77 SW10      29.86F

$$

INZ033-034-041-042-049-050-058-059-261600-
EAST CENTRAL INDIANA

CITY           SKY/WX    TMP DP  RH WIND       PRES   REMARKS
MUNCIE         FAIR      80  65  59 W6        29.85S
RICHMOND +     PTSUNNY   75  66  73 SW7       29.89F

$$

INZ060-061-067>069-081>083-085>088-261600-
SOUTHWEST INDIANA

CITY           SKY/WX    TMP DP  RH WIND       PRES   REMARKS
EVANSVILLE     FAIR      77  71  82 SW9       29.88F
HUNTINGBURG +  PTSUNNY   79  70  73 SW10      29.89S
WASHINGTON +   CLOUDY    76  67  75 SW6       29.86F

$$

INZ062-063-066-070>080-084-089>092-261600-
SOUTH CENTRAL AND SOUTHEAST INDIANA

CITY           SKY/WX    TMP DP  RH WIND       PRES   REMARKS
BATESVILLE +   MOSUNNY   79  70  73 VRB5G15   29.88S
BEDFORD +      CLOUDY    79  66  65 SW8       29.87S
BLOOMINGTON    PTSUNNY   74  71  91 VRB5      29.87S
FRENCH LICK *+ CLOUDY    77  61  57 SW6       29.89S
MADISON *+     FAIR      79  66  65 S8        29.90F
SEYMOUR +      FAIR      82  66  57 SW8       29.87F

$$





USA.gov is the U.S. government's official web portal to all federal, state and local government web resources and services.